• In Netherlands
  • List of Countries
  • For 7 days
  • Water Temperature
  • Satellite Maps
  • Weather Map
  • Weather Widgets
  • user-avatar
    Login

    Hourly Weather Canillo

    Today, 30 March, Thursday

    Time Temperature Precipitation Wind Pressure Humidity
    00:00 -2°C° 0 mm 0 mps 620 mmHg 88%
    01:00 -2°C° 0 mm 0 mps 620 mmHg 88%
    02:00 -2°C° 0 mm 0 mps 620 mmHg 87%
    03:00 -1°C° 0 mm 1 mps 619 mmHg 86%
    04:00 -1°C° 0 mm 1 mps 620 mmHg 86%
    05:00 0°C° 0 mm 1 mps 620 mmHg 86%
    06:00 +1°C° 0 mm 1 mps 620 mmHg 84%
    07:00 +4°C° 0 mm 1 mps 622 mmHg 78%
    08:00 +7°C° 0 mm 1 mps 623 mmHg 72%
    09:00 +10°C° 0 mm 1 mps 624 mmHg 67%
    10:00 +10°C° 0 mm 2 mps 625 mmHg 63%
    11:00 +12°C° 0 mm 2 mps 625 mmHg 59%
    12:00 +12°C° 0 mm 3 mps 625 mmHg 55%
    13:00 +12°C° 0 mm 3 mps 625 mmHg 54%
    14:00 +12°C° 0 mm 3 mps 625 mmHg 53%
    15:00 +12°C° 0 mm 3 mps 624 mmHg 53%
    16:00 +10°C° 0 mm 3 mps 623 mmHg 61%
    17:00 +7°C° 0 mm 2 mps 622 mmHg 69%
    18:00 +5°C° 0 mm 2 mps 621 mmHg 77%
    19:00 +4°C° 0 mm 2 mps 621 mmHg 78%
    20:00 +3°C° 0 mm 2 mps 620 mmHg 80%
    21:00 +1°C° 0 mm 2 mps 620 mmHg 82%
    22:00 +1°C° 0 mm 2 mps 620 mmHg 80%
    23:00 +1°C° 0 mm 2 mps 619 mmHg 78%

    Tomorrow, 31 March, Friday

    Time Temperature Precipitation Wind Pressure Humidity
    00:00 +1°C° 0 mm 2 mps 619 mmHg 76%
    01:00 +1°C° 0 mm 2 mps 619 mmHg 74%
    02:00 +1°C° 0 mm 2 mps 619 mmHg 73%
    03:00 +1°C° 0 mm 2 mps 618 mmHg 71%
    04:00 +1°C° 0 mm 2 mps 618 mmHg 70%
    05:00 +2°C° 0 mm 1 mps 619 mmHg 68%
    06:00 +2°C° 0 mm 1 mps 619 mmHg 67%
    07:00 +4°C° 0 mm 1 mps 619 mmHg 62%
    08:00 +6°C° 0 mm 1 mps 620 mmHg 58%
    09:00 +8°C° 0 mm 1 mps 621 mmHg 53%
    10:00 +8°C° 0 mm 2 mps 621 mmHg 52%
    11:00 +9°C° 0 mm 2 mps 621 mmHg 51%
    12:00 +10°C° 0 mm 3 mps 621 mmHg 51%
    13:00 +10°C° 0.1 mm 3 mps 621 mmHg 52%
    14:00 +10°C° 0.1 mm 3 mps 620 mmHg 54%
    15:00 +10°C° 0.1 mm 3 mps 620 mmHg 55%
    16:00 +8°C° 0.5 mm 3 mps 619 mmHg 65%
    17:00 +6°C° 0.5 mm 2 mps 617 mmHg 75%
    18:00 +5°C° 0.5 mm 2 mps 616 mmHg 85%
    19:00 +4°C° 0.6 mm 2 mps 616 mmHg 88%
    20:00 +3°C° 0.6 mm 2 mps 616 mmHg 91%
    21:00 +2°C° 0.6 mm 2 mps 616 mmHg 93%
    22:00 +3°C° 1.3 mm 1 mps 616 mmHg 95%
    23:00 +2°C° 1.3 mm 1 mps 615 mmHg 96%

    Day after tomorrow, 1 April, Saturday

    Time Temperature Precipitation Wind Pressure Humidity
    00:00 +2°C° 1.3 mm 1 mps 615 mmHg 97%
    01:00 +2°C° 1 mm 1 mps 615 mmHg 96%
    02:00 -1°C° 1 mm 2 mps 615 mmHg 95%
    03:00 -1°C° 1 mm 3 mps 614 mmHg 94%
    04:00 -1°C° 0.1 mm 3 mps 614 mmHg 92%
    05:00 -2°C° 0.1 mm 3 mps 614 mmHg 90%
    06:00 -2°C° 0.1 mm 3 mps 614 mmHg 89%
    07:00 -1°C° 0.1 mm 3 mps 615 mmHg 83%
    08:00 0°C° 0.1 mm 3 mps 616 mmHg 77%
    09:00 +1°C° 0.1 mm 3 mps 616 mmHg 71%
    10:00 +1°C° 0.1 mm 4 mps 617 mmHg 67%
    11:00 +3°C° 0.1 mm 4 mps 617 mmHg 62%
    12:00 +4°C° 0.1 mm 4 mps 618 mmHg 58%
    13:00 +4°C° 0.3 mm 4 mps 617 mmHg 60%
    14:00 +4°C° 0.3 mm 4 mps 617 mmHg 63%
    15:00 +3°C° 0.3 mm 4 mps 617 mmHg 65%
    16:00 +1°C° 0.2 mm 4 mps 617 mmHg 71%
    17:00 +1°C° 0.2 mm 3 mps 617 mmHg 76%
    18:00 0°C° 0.2 mm 3 mps 616 mmHg 82%
    19:00 -1°C° 0 mm 3 mps 616 mmHg 83%
    20:00 -2°C° 0 mm 3 mps 616 mmHg 85%
    21:00 -2°C° 0 mm 2 mps 616 mmHg 86%
    22:00 -3°C° 0 mm 2 mps 616 mmHg 86%
    23:00 -4°C° 0 mm 3 mps 616 mmHg 86%

    2 April, Sunday

    Time Temperature Precipitation Wind Pressure Humidity
    00:00 -4°C° 0 mm 3 mps 616 mmHg 85%
    01:00 -4°C° 0 mm 3 mps 616 mmHg 85%
    02:00 -4°C° 0 mm 3 mps 616 mmHg 84%
    03:00 -5°C° 0 mm 3 mps 615 mmHg 83%
    04:00 -4°C° 0 mm 3 mps 616 mmHg 83%
    05:00 -4°C° 0 mm 3 mps 616 mmHg 83%
    06:00 -4°C° 0 mm 3 mps 616 mmHg 82%
    07:00 -2°C° 0 mm 3 mps 617 mmHg 77%
    08:00 0°C° 0 mm 3 mps 618 mmHg 71%
    09:00 +1°C° 0 mm 3 mps 619 mmHg 66%
    10:00 +2°C° 0 mm 3 mps 619 mmHg 61%
    11:00 +4°C° 0 mm 3 mps 620 mmHg 56%
    12:00 +5°C° 0 mm 3 mps 620 mmHg 50%
    13:00 +5°C° 0 mm 3 mps 620 mmHg 52%
    14:00 +5°C° 0 mm 3 mps 620 mmHg 54%
    15:00 +5°C° 0 mm 3 mps 620 mmHg 56%
    16:00 +3°C° 0 mm 3 mps 619 mmHg 64%
    17:00 +2°C° 0 mm 3 mps 619 mmHg 71%
    18:00 +2°C° 0 mm 2 mps 619 mmHg 79%
    19:00 +1°C° 0 mm 2 mps 619 mmHg 81%
    20:00 -1°C° 0 mm 2 mps 619 mmHg 82%
    21:00 -2°C° 0 mm 2 mps 619 mmHg 84%
    22:00 -2°C° 0 mm 2 mps 619 mmHg 84%
    23:00 -2°C° 0 mm 2 mps 619 mmHg 84%

    3 April, Monday

    Time Temperature Precipitation Wind Pressure Humidity
    00:00 -2°C° 0 mm 2 mps 619 mmHg 83%
    01:00 -2°C° 0 mm 2 mps 619 mmHg 84%
    02:00 -2°C° 0 mm 2 mps 619 mmHg 85%
    03:00 -2°C° 0 mm 2 mps 619 mmHg 86%
    04:00 -2°C° 0 mm 2 mps 619 mmHg 85%
    05:00 -2°C° 0 mm 2 mps 619 mmHg 85%
    06:00 -2°C° 0 mm 2 mps 619 mmHg 84%
    07:00 +1°C° 0 mm 2 mps 620 mmHg 76%
    08:00 +3°C° 0 mm 2 mps 621 mmHg 68%
    09:00 +5°C° 0 mm 2 mps 622 mmHg 60%
    10:00 +6°C° 0 mm 2 mps 623 mmHg 58%
    11:00 +8°C° 0 mm 2 mps 623 mmHg 56%
    12:00 +9°C° 0 mm 2 mps 623 mmHg 54%
    13:00 +9°C° 0 mm 2 mps 623 mmHg 56%
    14:00 +9°C° 0 mm 2 mps 623 mmHg 57%
    15:00 +8°C° 0 mm 2 mps 622 mmHg 59%
    16:00 +7°C° 0 mm 2 mps 622 mmHg 67%
    17:00 +5°C° 0 mm 2 mps 621 mmHg 75%
    18:00 +4°C° 0 mm 2 mps 621 mmHg 83%
    19:00 +3°C° 0 mm 2 mps 621 mmHg 85%
    20:00 +2°C° 0 mm 2 mps 620 mmHg 87%
    21:00 +1°C° 0 mm 2 mps 620 mmHg 89%
    22:00 +1°C° 0 mm 2 mps 620 mmHg 87%
    23:00 +1°C° 0 mm 2 mps 620 mmHg 85%

    4 April, Tuesday

    Time Temperature Precipitation Wind Pressure Humidity
    00:00 +1°C° 0 mm 2 mps 620 mmHg 83%
    01:00 +1°C° 0 mm 2 mps 620 mmHg 84%
    02:00 0°C° 0 mm 3 mps 620 mmHg 85%
    03:00 0°C° 0 mm 3 mps 620 mmHg 86%
    04:00 0°C° 0 mm 3 mps 620 mmHg 86%
    05:00 0°C° 0 mm 3 mps 620 mmHg 86%
    06:00 +1°C° 0 mm 3 mps 620 mmHg 86%
    07:00 +2°C° 0 mm 3 mps 621 mmHg 79%
    08:00 +4°C° 0 mm 3 mps 622 mmHg 71%
    09:00 +7°C° 0 mm 3 mps 622 mmHg 64%
    10:00 +8°C° 0 mm 3 mps 623 mmHg 59%
    11:00 +9°C° 0 mm 3 mps 623 mmHg 54%
    12:00 +10°C° 0 mm 3 mps 623 mmHg 50%
    13:00 +10°C° 0 mm 3 mps 623 mmHg 50%
    14:00 +10°C° 0 mm 3 mps 623 mmHg 50%
    15:00 +10°C° 0 mm 3 mps 622 mmHg 50%
    16:00 +8°C° 0 mm 3 mps 622 mmHg 59%
    17:00 +5°C° 0 mm 3 mps 621 mmHg 68%
    18:00 +5°C° 0 mm 2 mps 621 mmHg 77%
    19:00 +4°C° 0 mm 2 mps 621 mmHg 79%
    20:00 +2°C° 0 mm 2 mps 621 mmHg 81%
    21:00 +1°C° 0 mm 2 mps 620 mmHg 84%
    22:00 +1°C° 0 mm 2 mps 620 mmHg 84%
    23:00 0°C° 0 mm 3 mps 620 mmHg 84%
    Show more